sat.trackr.live / text

‹ back to catalog

GRACE-FO 1

NORAD 43476 · 2018-047A

PAYLOAD ACTIVE UNKNOWN

§ Identity

Operator
Country
US
Launch date
2018-05-22
Launch site
AFWTR
Launch vehicle
Mass (kg)
RCS (m²)

External: N2YO · Heavens-Above · Gunter

§ Orbital elements

Epoch: 2026-09-04T02:58:23.835936Z

Period
93.58 min
Inclination
88.9983°
Eccentricity
0.0012026
Mean motion
15.38758518 rev/d
Perigee alt
441.6 km
Apogee alt
458.0 km
Semi-major
6,827.9 km
B*
6.4236e-5
RAAN
187.1129°
Arg perigee
146.7859°
Mean anomaly
213.4154°
Rev number
46,193

§ Raw data

GRACE-FO 11 43476U 18047A   26247.12388699  .00002499  00000+0  64236-4 0  99992 43476  88.9983 187.1129 0012026 146.7859 213.4154 15.38758518461935

JSON: /api/v1/satellites/43476 · /tle

For live sub-satellite position, see the globe view (requires WebGL).

§ Visibility from observer

Set your observer location to see the next 7 days of passes ≥ 10°. The values pass through the URL so the page stays shareable.

No JS? Fill the form by hand. The geolocation button needs JavaScript.